Location: Newark
(7.0858°N, 171.3717°E)
Time: 20:06:26
(UTC+00:00)

Vanguard 2 - Pass Details

Date: 05 December 2020
Orbit: 553 x 2937 km, 32.9° (Epoch: 17 January)

Event Time Altitude Azimuth Distance (km) Brightness Sun altitude
Rises 06:29:35 0° 253° (WSW) 3,396 13.7 -3.7°
Reaches altitude 10° 06:33:50 10° 221° (SW) 2,879 11.7 -4.7°
Maximum altitude 06:36:23 12° 200° (SSW) 2,991 11.2 -5.3°
Drops below altitude 10° 06:39:19 10° 179° (S) 3,455 11.2 -5.9°
Sets 06:46:00 0° 152° (SSE) 5,122 11.7 -7.5°
